Location: Newark
(45.2862°N, 9.8850°E)
Time: 19:08:05
(UTC+00:00)

N. Korean satellite - Pass Details

Date: 16 December 2019
Orbit: 454 x 507 km, 97.2° (Epoch: 28 January)

Event Time Altitude Azimuth Distance (km) Brightness Sun altitude
Rises 05:34:14 0° 7° (N) 2,529 10.1 -13.3°
Reaches altitude 10° 05:36:21 10° 2° (N) 1,637 9.1 -12.9°
Maximum altitude 05:39:45 51° 286° (WNW) 590 6.6 -12.3°
Drops below altitude 10° 05:43:06 10° 210° (SSW) 1,601 9.1 -11.8°
Sets 05:45:08 0° 205° (SSW) 2,465 10.1 -11.5°
